Вернуться в каталог

SL-8 R/B

АктивенPO
NORAD 21131·ROCKET BODY·🇷🇺 Russia

Запущен Feb 26, 1991 с Plesetsk Cosmodrome

Loading…

Ближайшие Пролёты (ближайшие 24 часа)

TLE

СвежийSource: Space-Track

Эпоха: Sep 14, 2026, 13:33 UTC

1 21131U 91013B   26257.56467291  .00000046  00000-0  29308-4 0  9990
2 21131  82.8251 119.9010 0062659 207.9751 151.8036 13.80631877790404

Отслеживайте SL-8 R/B в реальном времени с AllMySat

Download on the App Store